Погода Рудня

Погода Рудня : погода сейчас, прогноз погоды и архив. Всё, что Вы хотите узнать о погоде Рудня!

Поиск расширенной информации на нашем сайте:

Полезная информация: Доставка суши и пиццы в донецке domaed.com.

Другие новости

Новости СМИ2

Главная страница сайта

Новости сайта

02.10.2013

Напоминаем, что на нашем новом сайте вы можете получить высокодетализированные прогнозы погоды по пунктам России, СНГ и мира (включающие важные для авиации метеовеличины, такие как направление и скорость ветра, видимость, явления погоды, количество и форма облачности, нижняя и верхняя граница облачности), а также ознакомиться с разнообразными материалами по авиационной метеорологии и подборкой полезных ссылок на эту тему.

Сайт Метеоцентр.Азия посвящён разработке технологий оптимизации авиаметеорологического обслуживания, включая проектирование и перспективное создание нескольких автоматизированных авиаметеорологических систем:
- система выпуска высокодетальных прогностических карт явлений погоды для нижнего воздушного пространства по России и ближнему зарубежью;
- система верификации прогнозов TAF (выпускаемых синоптиками официальных АМСГ РФ и ближнего зарубежья) и AUTOTAF (выпускаемых сайтом Метеоцентр.Азия) - выявление ошибок, онлайн-сопоставление с фактической погодой METAR, автоматическое внесение коррективов в прогнозы при резком отклонении фактической погоды от прогноза, подсчёт оправдываемости прогнозов по элементам и в целом;
- система обработки, анализа и отображения авиаметеорологической информации для применения провайдерами метеорологической информации.

Рекомендуем: холодильная витрина

Погода Рудня - сегодня

Время (UTC), дата Ветер
(°,м/с) 
Видим.   Явления Облачность Т
(°С)
Тd
(°С)
f(%) Тe
(°С)
Pmin
(гПа)
dP
(гПа)
Po
(мм)
O2
(г/м3)
Тmin Tmax R s Состояние
почвы
21 22.03.17 080 (В) 10 км    10/10 600 м 
[Sc]
-0.6 -3 84 -1  1022.3  0.5  756  305           
00 23.03.17 100 (В) 10 км    10/10 600 м 
[Sc]
-1 -3.1 86 -2  1022.6  0.2  756  306           
03 23.03.17 090 (В) 10 км    10/10 600 м 
[Sc]
-1 -3 86 1023.4  0.8  756  306  -1.1         
06 23.03.17 120 (ЮВ) 10 км    10/10 600 м 
[Sc]
-0.1 -2.6 83 +1  1024.1  0.7  757  305           
09 23.03.17 150 (ЮВ) 10 км    10/10 600 м 
[Sc]
+2.3 -1.9 74 +3  1024  757  303           
12 23.03.17 230 (ЮЗ) 10 км    10/10 600 м 
[St]
+4.4 -0 73 +5  1023.9  757  300           
15 23.03.17 220 (ЮЗ) 10 км    8/8 600 м 
[Sc]
+4.8 +0.2 72 +4  1023.9  757  300    +5.2       
18 23.03.17 190 (Ю) 10 км    10/10 600 м 
[Sc]
+3.5 +0.8 82 +3  1024.7  0.7  758  301           
21 23.03.17 170 (Ю) 10 км    10/10 600 м 
[Sc]
+3.3 +1.3 87 +4  1024.8  0.1  758  301           
00 24.03.17 100 (В) 10 км    10/10 600 м 
[Sc]
+3 +2 93 +4  1025.2  0.3  758  302           
03 24.03.17 тихо ()   4000 м  дымка{дождь}  10/10 600 м 
[St]
+3.1 +2.3 94 +3  1025.5  0.3  758  302  +3    0.9     
06 24.03.17 120 (ЮВ) 10 км  {дождь}  10/10 600 м 
[Sc]
+4.3 +3.4 94 +4  1025.8  0.4  758  300           
09 24.03.17 150 (ЮВ) 10 км    10/10 600 м 
[Sc]
+6.4 +3.9 84 +6  1024.9  -0.8  758  298           
12 24.03.17 150 (ЮВ) 10 км    10/10 600 м 
[Sc]
+6.1 +4.4 89 +5  1022.8  -2.1  756  297           
15 24.03.17 180 (Ю) 10 км    10/10 600 м 
[Sc]
+7.3 +4.8 84 +7  1019.8  -2.9  754  295    +7.3       
18 24.03.17 190 (Ю) 3{11}  10 км    10/10 600 м 
[Sc]
+6 +4 87 +5  1017.8  -2  753  296           
21 24.03.17 200 (Ю) 3{11}  10 км  слаб. дождь{морось}  10/10 300 м 
[Frnb]
+6.2 +4.6 89 +5  1014.9  -2.8  750  295           
00 25.03.17 210 (ЮЗ) 4-10{10}  10 км  слаб. дождь{морось}  10/10 300 м 
[Frnb]
+7.1 +5.2 88 +6  1011.3  -3.5  748  293           
03 25.03.17 230 (ЮЗ) 4{11}  10 км  {дождь}  10/10 600 м 
[St]
+6.8 +5.3 90 +5  1008.7  -2.6  746  292  +5.9       
06 25.03.17 300 (СЗ) 4{10}  10 км  слаб. дождь  10/10 300 м 
[Frnb]
+3.8 +2.3 90 +2  1009  -0.1  746  296  +3.8         
09 25.03.17 310 (СЗ) 5{10}  10 км  {дождь}  10/10 600 м 
[St]
+3.8 +1.3 84 +1  1009.9  0.9  747  297           
12 25.03.17 320 (СЗ) 4{11}  10 км  {дождь}  9/9 600 м кучево-дожд. 
[Cb cap]
+3.6 -4.1 57 +2  1011.3  1.3  748  298           
15 25.03.17 300 (СЗ) 3{12}  10 км    6/6 600 м 
[Cu Sc]
+2.7 -3.9 62 +1  1012.7  1.3  749  299    +6.9     
18 25.03.17 300 (СЗ) 10 км    ясно 
+0.4 -4.2 71 1014.7  1.9  750  302           
21 25.03.17 280 (З) 10 км    ясно 
-2 -4.5 83 -1  1015.9  751  305           
Время (UTC), дата Ветер
(°,м/с) 
Видим.   Явления Облачность Т
(°С)
Тd
(°С)
f(%) Тe
(°С)
Pmin
(гПа)
dP
(гПа)
Po
(мм)
O2
(г/м3)
Тmin Tmax R s Состояние
почвы

Для получения пояснительной информации подведите курсор к названию столбца.

ПОГОДА Рудня - архив

Всё, что Вы хотите узнать о погоде Рудня - удобно и подробно!

Выберите нужную дату (начиная с 1 января 2015* года) и нажмите кнопку "Найти".
Будут отображены архивные сводки погоды по пункту Рудня, начиная с указанной даты.


Отображать данные в формате CSV (для использования в таблицах Excel)


Внимание! Наш архив погоды предназначен исключительно для личного некоммерческого использования в познавательных целях. Если Вам необходимы официальные справки о состоянии погоды (для производственных, юридических, коммерческих и т.п. целей), обращайтесь в органы Росгидромета.

*Примечание: данная дата относится к архиву по метеостанциям СССР (Россия, СНГ, Балтия).
Архив по метеостанциям Зарубежной Европы и Азии (кроме Китая) хранится 10 дней, по другим регионам земного шара (Китай, Африка, Америка, Австралия, Океания) - 1 день.

Рудня - район местоположения метеостанции


Название, широта, долгота, высота метеостанции:
Рудня 50.8°ш. 44.6°д. 114 м над ур. моря [Российская Федерация]

Дополнительная информация

В oтличие oт бoльшинства пoгoдных сайтoв мы публикуем пoдрoбную метеoинфoрмацию в детальнoм прoфессиoнальнoм фoрмате.

Характеристики температуры и влажнoсти вoздуха измеряются на высoте 2 м в тени вдали oт зданий и деревьев.
Скoрoсть ветра измеряется на высoте 10 м (на урoвне рoста челoвека скoрoсть ветра ниже в 1.5-2 раза). Если метеoстанция нахoдится в гoрoде или в лесу, тo скoрoсть ветра занижена на 2-4 м/с пo сравнению с oткрытым местoм. Скoрoсть ветра над акватoриями крупных рек и oзёр, а также на вершинах хoлмoв на 2-5 м/с выше, чем в oбычных услoвиях.
Атмoсфернoе давление в разных тoчках местнoсти мoжет значительнo oтличаться oт давления на метеoстанции, в зависимoсти oт услoвий рельефа (при пoдъёме на 10 м давление пoнижается примернo на 1 мм рт.ст.).